www.pogodaiklimat.ru

Погода и климат >> Архив погоды >> ОАЭ >> Dubai


АРХИВ ПОГОДЫ в Dubai

Время (UTC), дата Ветер
(напр.,м/с)
 
Видим.   Явления Облачность Т
(С)
Тd
(С)
f
(%)
Тe
(С)
Тes
(С)
Комфортность P
(гПа)
Po
(гПа)
Тmin
(С)
Tmax
(С)
R
(мм)
R24
(мм)
S
(см)
06 9.07 Ю 3 7000 м пыль ясно +38.5 +15.5 26 +40 +53 опасность
солнечного
удара
997.6 997.1 +32.5
09 9.07 СЗ 6 7000 м пыль ясно +41.3 +17.2 25 +44 +52 опасность
перегрева
995.5 995.0
12 9.07 СЗ 5 8000 м пыль ясно +41.1 +20.6 31 +47 +52 опасность
перегрева
993.8 993.3
15 9.07 СЗ 4 10 км ясно +39.5 +16.3 26 +42 +42 опасность
перегрева
994.1 993.6
18 9.07 ЮВ 3 8000 м пыль ясно +39.5 +13.6 22 +40 +40 очень
душно
995.1 994.6 +43.8
00 10.07 В 3 7000 м пыль ясно +35.5 +21.7 45 +44 +44 опасность
перегрева
994.4 993.9
06 10.07 нст 2 6000 м пыль ясно +41.1 +20.0 30 +46 +64 опасность
перегрева
996.1 995.5 +33.9
09 10.07 СЗ 6 4500 м пыль ясно +36.9 +28.6 63 +59 +67 опасность
перегрева
995.1 994.6
12 10.07 С 5 5000 м пыль 5/0
[Ci fib]
+40.6 +21.2 33 +47 +51 опасность
перегрева
993.9 993.3
15 10.07 СВ 3 6000 м пыль 3/0
[Ac trans]
+42.7 +16.3 22 +45 +45 опасность
перегрева
994.0 993.4
18 10.07 СВ 2 8000 м пыль ясно +40.4 +16.5 25 +42 +42 опасность
перегрева
995.5 994.9 +43.0
21 10.07 СВ 2 7000 м пыль ясно +38.6 +18.4 31 +42 +42 опасность
перегрева
994.5 994.0
00 11.07 СВ 4 8000 м пыль ясно +36.3 +22.8 46 +46 +46 опасность
перегрева
994.5 994.0
03 11.07 ЮВ 3 5000 м пыль ясно +36.0 +21.8 44 +44 +46 опасность
перегрева
995.9 995.4
09 11.07 СЗ 5 6000 м пыль ясно +41.6 +25.3 40 +54 +65 опасность
перегрева
995.1 994.6
12 11.07 С 6 8000 м пыль ясно +42.8 +19.1 26 +47 +51 опасность
перегрева
994.2 993.7
15 11.07 СЗ 4 8000 м пыль 3/0
[Ci fib]
+41.5 +15.3 22 +43 +43 опасность
перегрева
993.8 993.3
00 12.07 нст 1 10 км ясно +37.3 +20.5 38 +44 +44 опасность
перегрева
993.9 993.4
03 12.07 Ю 3 6000 м пыль ясно +35.1 +16.3 33 +38 +40 очень
душно
994.9 994.4
06 12.07 ЮЗ 3 8000 м пыль ясно +41.5 +10.2 16 +40 +55 опасность
солнечного
удара
995.1 994.6 +34.3
12 12.07 СЗ 7 8000 м пыль ясно +39.1 +23.0 40 +49 +51 опасность
перегрева
993.0 992.5
15 12.07 СЗ 4 7000 м пыль ясно +37.1 +24.6 49 +50 +50 опасность
перегрева
992.6 992.1
18 12.07 СЗ 3 10 км ясно +35.5 +24.4 53 +48 +48 опасность
перегрева
993.8 993.3 +43.3
21 12.07 ЮЗ 2 10 км ясно +35.4 +23.7 51 +47 +47 опасность
перегрева
993.1 992.6
00 13.07 В 3 8000 м пыль ясно +34.1 +22.8 52 +44 +44 опасность
перегрева
992.7 992.2
03 13.07 Ю 2 6000 м пыль 3/0
[Ac trans]
+33.7 +22.1 51 +43 +44 опасность
перегрева
993.1 992.6
06 13.07 СЗ 5 7000 м пыль ясно +38.1 +22.1 40 +46 +54 опасность
перегрева
994.0 993.4 +32.8
09 13.07 С 6 5000 м пыль ясно +38.2 +28.4 58 +60 +69 опасность
перегрева
993.9 993.3
15 13.07 СЗ 3 10 км ясно +39.8 +13.2 21 +40 +40 очень
душно
992.4 991.8
21 13.07 СЗ 3 10 км ясно +35.9 +20.9 42 +43 +43 опасность
перегрева
993.3 992.8
03 14.07 В 3 5000 м пыль ясно +34.2 +25.5 61 +49 +51 опасность
перегрева
994.2 993.7
06 14.07 Ю 2 10 км ясно +41.2 +19.0 28 +45 +63 опасность
перегрева
994.8 994.3 +33.9
09 14.07 СЗ 6 7000 м пыль ясно +38.3 +26.7 52 +55 +64 опасность
перегрева
993.9 993.4
15 14.07 С 3 10 км ясно +38.5 +19.8 34 +44 +44 опасность
перегрева
993.3 992.8
18 14.07 СЗ 3 10 км ясно +36.4 +21.0 41 +43 +43 опасность
перегрева
994.5 994.0 +41.4
00 15.07 СВ 2 8000 м мгла ясно +33.8 +27.7 71 +54 +54 опасность
перегрева
993.8 993.3
03 15.07 Ю 2 7000 м пыль ясно +33.2 +23.2 56 +44 +46 опасность
перегрева
994.8 994.3
06 15.07 З 3 6000 м пыль ясно +36.7 +23.5 47 +47 +62 опасность
перегрева
995.6 995.1 +32.9
09 15.07 СЗ 6 7000 м пыль ясно +36.9 +28.6 63 +59 +69 опасность
перегрева
994.5 994.0
18 15.07 ЮЗ 3 10 км ясно +34.7 +28.1 69 +56 +56 опасность
перегрева
993.7 993.2 +39.7

 

Местоположение метеостанции Dubai (ОАЭ): широта 25.25 долгота 55.33 высота над уровнем моря 5 м.

В архиве по умолчанию представлена погода в Dubai за последнюю неделю. Архивные данные за месяц целиком и за предыдущие месяцы, начиная с января 2011 года, Вы можете получить, выбрав интересующий диапазон дат из раскрывающегося списка и нажав кнопку "Ввод!".


*Определитесь, кто Вы:
робот инопланетянин человек

Внимание! Время в таблицах - всемирное. Для получения местного времени необходимо прибавить поправку, которая в Dubai равна 4 ч.

Смотрите также архив погоды в соседних городах и на ближайших метеорологических станциях:

Погода в Sharjah (ОАЭ) (21 км)
Погода в Dubai Al Maktoum Int Airport (ОАЭ) (43 км)
Погода в Ras Al Khaimah Int Airport (ОАЭ) (73 км)
Погода в Abu Musa Island (Иран) (82 км)
Погода в Diba (Оман) (101 км)
Погода в Fujairah (ОАЭ) (102 км)
Погода в Sirri Island (Иран) (107 км)
Погода в Al Ain Int Airport (ОАЭ) (112 км)
Погода в Abu Dhabi (ОАЭ) (114 км)
Погода в Buraimi (Оман) (122 км)

Пояснения к столбцам:

Ветер - указаны скорость ветра в м/с - средняя за 10 мин, порывы в срок и между сроками (в фигурных скобках) и направление, откуда дует ветер: С - северный, СВ - северо-восточный, В - восточный, ЮВ - юго-восточный, Ю - южный, ЮЗ - юго-западный, З - западный, СЗ - северо-западный.
Видимость - горизонтальная дальность видимости в метрах или километрах. При видимости от 1 до 10 км при отсутствии осадков обычно наблюдается дымка, при ухудшении видимости до 1 км и менее - туман. В сухую погоду видимость может ухудшаться дымом, пылью или мглою.
Явления - указаны атмосферные явления, наблюдавшиеся в срок или в последний час перед сроком; фигурными скобками обозначены явления, наблюдавшиеся между сроками (за 1-3 часа до срока); квадратными скобками обозначены град или гололедные отложения с указанием их диаметра в мм.
Облачность - указаны через наклонную черту общая и нижняя облачность в баллах и высота нижней границы облаков в метрах; квадратными скобками обозначены формы облаков: Ci - перистые, Cs - перисто-слоистые, Cc - перисто-кучевые, Ac - высококучевые, As - высокослоистые, Sc - слоисто-кучевые, Ns - слоисто-дождевые, Cu - кучевые, Cb - кучево-дождевые. Подробнее классификацию облаков см. в Атласе облаков (PDF).
T - Температура воздуха - температура, измеренная на высоте 2 м над землей.
Td - Температура точки росы - температура, при понижении до которой содержащийся в воздухе водяной пар достигнет насыщения.
f - Относительная влажность воздуха - влажноcть воздуха, измеренная на высоте 2 м над землей.
Te - Эффективная температура - температура, которую ощущает одетый по сезону человек в тени. Характеристика душности погоды. При расчете учитывается влияние влажности воздуха и скорости ветра на теплоощущения человека.
Tes - Эффективная температура на солнце - температура, которую ощущает человек, с поправкой на солнечный нагрев. Характеристика знойности погоды. Зависит от высоты солнца над горизонтом, облачности и скорости ветра. Ночью, в пасмурную погоду, а также при ветре 12 м/с и более поправка равна нулю.
P - Атмосферное давление - приведенное к уровню моря атмосферное давление.
Po - Атмосферное давление - измеренное на уровне метеостанции атмосферное давление.
Tmin - Минимальная температура - минимум температуры воздуха на высоте 2 м над землей.
Tmax - Максимальная температура - максимум температуры воздуха на высоте 2 м над землей.
R - Количество осадков - Количество выпавших осадков за период времени, мм. При наведении курсора мыши на число - период времени, за который выпало указанное количество осадков.
R24 - Количество осадков - Количество выпавших осадков за 24 часа, мм.
S - Снежный покров - Высота снежного покрова, см. При наведении курсора мыши на число - состояние снежного покрова и степень покрытия местности в баллах.